Andover, NJ

10:23 PM EDT on May 23, 2017 (GMT -0400)
Andover

Weather History for K12N - May, 2012

Change the Weather History Date:

Friday, May 4, 2012

  Actual Average (KFWN) Record (KFWN)
Temperature  
Mean Temperature 66 °F -  
Max Temperature 79 °F 66 °F 90 °F (2001)
Min Temperature 55 °F 39 °F 25 °F (1986)
Cooling Degree Days 2    
Growing Degree Days 16 (Base 50)    
Moisture  
Dew Point 59 °F    
Average Humidity 89    
Maximum Humidity 100    
Minimum Humidity 64    
Precipitation  
Precipitation 0.10 in - - ()
Sea Level Pressure  
Sea Level Pressure 29.95 in    
Wind  
Wind Speed 1 mph (SSW)    
Max Wind Speed 7 mph    
Max Gust Speed -    
Averages and records for this station are not official NWS values.
T = Trace of Precipitation, MM = Missing Value Source: NWS Daily Summary

Daily Weather History Graph

Daily Weather History Graph

Search for Another Location

Airport or City:

Trip Planner

Search our weather history database for the weather conditions in past years. The results will help you decide how hot, cold, wet, or windy it might be!

Date:

Astronomy

May. 04, 2012 Rise Set
Actual Time 5:52 AM EDT 7:59 PM EDT
Civil Twilight 5:22 AM EDT 8:29 PM EDT
Nautical Twilight 4:45 AM EDT 9:06 PM EDT
Astronomical Twilight 4:05 AM EDT 9:47 PM EDT
Moon 6:34 PM EDT (5/4) 4:32 AM EDT (5/4)
Length of Visible Light 15h 07m
Length of Day
14h 06m
Waxing Gibbous, 97% of the Moon is Illuminated
May 4
Waxing Gibbous
May 5
Full
May 12
Last Quarter
May 20
New
May 28
First Quarter

Hourly Weather History & Observations

Time (EDT) Temp. Dew Point Humidity Pressure Visibility Wind Dir Wind Speed Gust Speed Precip Events Conditions
12:54 AM 55.9 °F 55.0 °F 97% 30.09 in - Calm Calm - N/A   Unknown
1:54 AM 55.0 °F 54.0 °F 96% 30.06 in - Calm Calm - N/A   Unknown
2:54 AM 55.0 °F 54.0 °F 96% 30.03 in - South 3.5 mph - N/A   Unknown
3:54 AM 55.0 °F 54.0 °F 96% 30.01 in - Calm Calm - N/A   Unknown
4:54 AM 55.0 °F 54.0 °F 96% 30.06 in - Calm Calm - N/A   Unknown
5:54 AM 55.0 °F 54.0 °F 96% 30.05 in - Calm Calm - 0.08 in   Unknown
6:54 AM 55.9 °F 54.0 °F 93% 29.98 in - Calm Calm - 0.02 in   Unknown
7:54 AM 55.9 °F 55.0 °F 97% 30.02 in - Calm Calm - N/A   Unknown
8:54 AM 57.0 °F 55.0 °F 93% 30.01 in - Calm Calm - N/A   Unknown
9:54 AM 57.0 °F 55.9 °F 96% 29.99 in - Variable 5.8 mph - N/A   Unknown
10:54 AM 59.0 °F 57.0 °F 93% 29.99 in - SW 5.8 mph - N/A   Unknown
11:54 AM 61.0 °F 57.9 °F 90% 29.96 in - Calm Calm - N/A   Unknown
12:54 PM 64.9 °F 59.0 °F 81% 29.94 in - Calm Calm - N/A   Unknown
1:54 PM 69.1 °F 61.0 °F 75% 29.93 in - South 3.5 mph - N/A   Unknown
2:54 PM 73.0 °F 63.0 °F 71% 29.91 in - Variable 3.5 mph - N/A   Unknown
3:54 PM 75.9 °F 64.0 °F 67% 29.88 in - Variable 6.9 mph - N/A   Unknown
4:54 PM 78.1 °F 64.9 °F 64% 29.86 in - Variable 3.5 mph - N/A   Unknown
5:54 PM 78.1 °F 64.9 °F 64% 29.84 in - Calm Calm - N/A   Unknown
6:54 PM 73.0 °F 66.9 °F 81% 29.84 in - Calm Calm - N/A   Unknown
7:54 PM 68.0 °F 66.0 °F 93% 29.87 in - Calm Calm - N/A   Unknown
8:54 PM 64.9 °F 63.0 °F 93% 29.88 in - Calm Calm - N/A   Unknown
9:54 PM 63.0 °F 63.0 °F 100% 29.89 in - Calm Calm - N/A   Unknown
10:54 PM 64.0 °F 64.0 °F 100% 29.90 in - Calm Calm - N/A   Unknown
11:54 PM 63.0 °F 62.1 °F 97% 29.90 in - Calm Calm - N/A   Unknown